Guymon, OK

3:39 AM CDT on July 28, 2017 (GMT -0500)
Guymon Municipal

Weather History for KGUY - May, 2013

Change the Weather History Date:

Friday, May 24, 2013

  Actual Average Record
Temperature  
Mean Temperature 75 °F 67 °F  
Max Temperature 89 °F 81 °F 98 °F (2004)
Min Temperature 60 °F 54 °F 39 °F (2017)
Degree Days  
Heating Degree Days 0 2  
Month to date heating degree days 98 87  
Since 1 July heating degree days 4311 4440  
Cooling Degree Days 10 4  
Month to date cooling degree days 88 60  
Year to date cooling degree days 113 75  
Growing Degree Days 24 (Base 50)    
Moisture  
Dew Point 54 °F    
Average Humidity 58    
Maximum Humidity 90    
Minimum Humidity 26    
Precipitation  
Precipitation 0.00 in 0.10 in 0.02 in (2005)
Month to date precipitation 0.14 1.68  
Year to date precipitation 2.33 5.49  
Snow  
Snow 0.00 in - - ()
Month to date snowfall 0.3  
Since 1 July snowfall 22.3  
Snow Depth 0.00 in    
Sea Level Pressure  
Sea Level Pressure 30.00 in    
Wind  
Wind Speed 17 mph (SSE)    
Max Wind Speed 29 mph    
Max Gust Speed 38 mph    
Visibility 10 miles    
Events      
T = Trace of Precipitation, MM = Missing Value Source: NWS Daily Summary

Daily Weather History Graph

Daily Weather History Graph

Search for Another Location

Airport or City:

Trip Planner

Search our weather history database for the weather conditions in past years. The results will help you decide how hot, cold, wet, or windy it might be!

Date:

Astronomy

May. 24, 2013 Rise Set
Actual Time 6:32 AM CDT 8:53 PM CDT
Civil Twilight 6:02 AM CDT 9:23 PM CDT
Nautical Twilight 5:26 AM CDT 10:00 PM CDT
Astronomical Twilight 4:46 AM CDT 10:40 PM CDT
Moon 8:38 PM CDT (5/24) 6:04 AM CDT (5/24)
Length of Visible Light 15h 20m
Length of Day
14h 21m
Full, 100% of the Moon is Illuminated
May 24
Full
May 24
Full
May 31
Last Quarter
Jun 8
New
Jun 16
First Quarter

Hourly Weather History & Observations

Time (CDT) Temp. Heat Index Dew Point Humidity Pressure Visibility Wind Dir Wind Speed Gust Speed Precip Events Conditions
12:36 AM 62.6 °F - 53.6 °F 72% 30.12 in 10.0 mi East 11.5 mph - N/A   Overcast
12:53 AM 61.0 °F - 54.0 °F 78% 30.05 in 10.0 mi East 10.4 mph - N/A   Overcast
1:53 AM 60.1 °F - 54.0 °F 80% 30.05 in 10.0 mi East 11.5 mph - N/A   Overcast
2:53 AM 60.1 °F - 55.0 °F 83% 30.02 in 10.0 mi ESE 11.5 mph - N/A   Overcast
3:21 AM 60.8 °F - 55.4 °F 82% 30.11 in 10.0 mi ESE 9.2 mph - N/A   Overcast
3:53 AM 60.1 °F - 55.0 °F 83% 30.01 in 10.0 mi ESE 10.4 mph - N/A   Overcast
4:53 AM 60.1 °F - 54.0 °F 80% 30.01 in 10.0 mi ESE 11.5 mph - N/A   Overcast
5:53 AM 60.1 °F - 55.0 °F 83% 30.01 in 10.0 mi SE 12.7 mph - N/A   Overcast
6:53 AM 60.1 °F - 57.0 °F 90% 30.02 in 10.0 mi SSE 15.0 mph 20.7 mph N/A   Mostly Cloudy
7:09 AM 60.8 °F - 57.2 °F 88% 30.12 in 9.0 mi SSE 13.8 mph 21.9 mph N/A   Scattered Clouds
7:19 AM 60.8 °F - 57.2 °F 88% 30.12 in 10.0 mi SSE 15.0 mph 20.7 mph N/A   Mostly Cloudy
7:29 AM 60.8 °F - 57.2 °F 88% 30.12 in 9.0 mi SSE 15.0 mph 21.9 mph N/A   Scattered Clouds
7:41 AM 62.6 °F - 57.2 °F 82% 30.12 in 10.0 mi SSE 18.4 mph 24.2 mph N/A   Mostly Cloudy
7:51 AM 62.6 °F - 57.2 °F 82% 30.13 in 10.0 mi SSE 17.3 mph 24.2 mph N/A   Mostly Cloudy
7:53 AM 61.0 °F - 57.9 °F 90% 30.04 in 9.0 mi SSE 15.0 mph 24.2 mph N/A   Mostly Cloudy
8:53 AM 62.1 °F - 57.9 °F 86% 30.05 in 8.0 mi SE 11.5 mph - N/A   Overcast
9:20 AM 64.4 °F - 59.0 °F 83% 30.14 in 9.0 mi SSE 8.1 mph - N/A   Overcast
9:53 AM 69.1 °F - 59.0 °F 70% 30.04 in 10.0 mi SSE 15.0 mph 21.9 mph N/A   Mostly Cloudy
10:43 AM 71.6 °F - 55.4 °F 57% 30.12 in 10.0 mi SSE 18.4 mph 24.2 mph N/A   Mostly Cloudy
10:53 AM 73.0 °F - 57.0 °F 57% 30.01 in 10.0 mi SSE 17.3 mph 25.3 mph N/A   Scattered Clouds
11:53 AM 78.1 °F - 55.0 °F 45% 29.99 in 10.0 mi South 21.9 mph 31.1 mph N/A   Scattered Clouds
12:53 PM 82.9 °F 81.9 °F 54.0 °F 37% 29.96 in 10.0 mi SSW 25.3 mph 29.9 mph N/A   Partly Cloudy
1:53 PM 84.9 °F 83.2 °F 53.1 °F 33% 29.93 in 10.0 mi SSW 27.6 mph 38.0 mph N/A   Clear
2:53 PM 88.0 °F - 51.1 °F 28% 29.91 in 10.0 mi South 20.7 mph 35.7 mph N/A   Clear
3:53 PM 87.1 °F 84.9 °F 53.1 °F 31% 29.88 in 10.0 mi South 19.6 mph 28.8 mph N/A   Partly Cloudy
4:53 PM 89.1 °F 86.9 °F 54.0 °F 30% 29.86 in 10.0 mi South 23.0 mph 32.2 mph N/A   Partly Cloudy
5:53 PM 88.0 °F 85.9 °F 54.0 °F 31% 29.85 in 10.0 mi South 20.7 mph 34.5 mph N/A   Clear
6:53 PM 87.1 °F - 48.0 °F 26% 29.83 in 10.0 mi South 18.4 mph 32.2 mph N/A   Clear
7:53 PM 84.9 °F - 46.9 °F 27% 29.84 in 10.0 mi South 21.9 mph 31.1 mph N/A   Clear
8:53 PM 81.0 °F - 48.9 °F 33% 29.86 in 10.0 mi South 18.4 mph 31.1 mph N/A   Clear
9:53 PM 78.1 °F - 48.0 °F 35% 29.87 in 10.0 mi South 19.6 mph 27.6 mph N/A   Clear
10:53 PM 77.0 °F - 48.9 °F 37% 29.91 in 10.0 mi South 20.7 mph 31.1 mph N/A   Clear
11:53 PM 75.0 °F - 52.0 °F 44% 29.94 in 10.0 mi South 17.3 mph - N/A   Clear